| time (UTC) | temp F | wind direction | speed MPH | gust MPH | rain 1hr in | rain 24hr in | rain mn in | humidity % | barometer mb |
| 20260903113053 | 81 | 98 | 2.0 | 8.0 | 0.00 | 0.00 | 0.00 | 85 | 1017.9 |
| 20260903112536 | 81 | 169 | 2.0 | 9.0 | 0.00 | 0.00 | 0.00 | 85 | 1017.7 |
| 20260903112036 | 81 | 171 | 4.0 | 11.0 | 0.00 | 0.00 | 0.00 | 85 | 1017.7 |
| 20260903111613 | 81 | 186 | 5.0 | 11.0 | 0.00 | 0.00 | 0.00 | 85 | 1017.7 |
| 20260903111035 | 81 | 174 | 4.0 | 11.0 | 0.00 | 0.00 | 0.00 | 85 | 1017.6 |
| 20260903110535 | 81 | 165 | 3.0 | 11.0 | 0.00 | 0.00 | 0.00 | 85 | 1017.6 |
| 20260903110047 | 81 | 163 | 4.0 | 11.0 | 0.00 | 0.00 | 0.00 | 85 | 1017.7 |
| 20260903105538 | 81 | 165 | 4.0 | 10.0 | 0.00 | 0.00 | 0.00 | 85 | 1017.6 |
| 20260903105035 | 82 | 153 | 4.0 | 10.0 | 0.00 | 0.00 | 0.00 | 85 | 1017.7 |
| 20260903104605 | 81 | 0 | 3.0 | 11.0 | 0.00 | 0.00 | 0.00 | 85 | 1017.7 |
| 20260903104035 | 81 | 161 | 2.0 | 12.0 | 0.00 | 0.00 | 0.00 | 85 | 1017.6 |
| 20260903103534 | 81 | 182 | 4.0 | 12.0 | 0.00 | 0.00 | 0.00 | 85 | 1017.6 |
| 20260903103104 | 81 | 175 | 2.0 | 9.0 | 0.00 | 0.00 | 0.00 | 85 | 1017.7 |
| 20260903102536 | 81 | 186 | 2.0 | 9.0 | 0.00 | 0.00 | 0.00 | 85 | 1017.6 |
| 20260903102035 | 81 | 170 | 4.0 | 15.0 | 0.00 | 0.00 | 0.00 | 85 | 1017.6 |
| 20260903101556 | 81 | 360 | 6.0 | 15.0 | 0.00 | 0.00 | 0.00 | 85 | 1017.6 |
| 20260903101035 | 81 | 171 | 4.0 | 10.0 | 0.00 | 0.00 | 0.00 | 85 | 1017.7 |
| 20260903100535 | 81 | 189 | 4.0 | 10.0 | 0.00 | 0.00 | 0.00 | 85 | 1017.5 |
| 20260903100049 | 81 | 158 | 4.0 | 10.0 | 0.00 | 0.00 | 0.00 | 85 | 1017.6 |
| 20260903095534 | 81 | 185 | 4.0 | 10.0 | 0.00 | 0.00 | 0.00 | 85 | 1017.6 |
| 20260903095036 | 81 | 360 | 6.0 | 10.0 | 0.00 | 0.00 | 0.00 | 85 | 1017.5 |
| 20260903094559 | 81 | 162 | 5.0 | 10.0 | 0.00 | 0.00 | 0.00 | 85 | 1017.5 |
| 20260903094035 | 81 | 155 | 5.0 | 11.0 | 0.00 | 0.00 | 0.00 | 85 | 1017.4 |
| 20260903093535 | 81 | 147 | 6.0 | 13.0 | 0.00 | 0.00 | 0.00 | 85 | 1017.5 |
| 20260903093122 | 81 | 162 | 6.0 | 13.0 | 0.00 | 0.00 | 0.00 | 85 | 1017.4 |
| 20260903092538 | 81 | 155 | 6.0 | 11.0 | 0.00 | 0.00 | 0.00 | 86 | 1017.5 |
| 20260903092035 | 81 | 146 | 5.0 | 14.0 | 0.00 | 0.00 | 0.00 | 86 | 1017.5 |
| 20260903091551 | 81 | 177 | 5.0 | 14.0 | 0.00 | 0.00 | 0.00 | 86 | 1017.6 |
| 20260903091035 | 81 | 159 | 4.0 | 9.0 | 0.00 | 0.00 | 0.00 | 86 | 1017.5 |
| 20260903090535 | 81 | 179 | 3.0 | 10.0 | 0.00 | 0.00 | 0.00 | 86 | 1017.5 |
| 20260903090055 | 81 | 171 | 4.0 | 10.0 | 0.00 | 0.00 | 0.00 | 86 | 1017.5 |
| 20260903085536 | 81 | 165 | 5.0 | 10.0 | 0.00 | 0.00 | 0.00 | 86 | 1017.6 |
| 20260903085034 | 81 | 130 | 4.0 | 9.0 | 0.00 | 0.00 | 0.00 | 86 | 1017.6 |
| 20260903084555 | 81 | 148 | 4.0 | 9.0 | 0.00 | 0.00 | 0.00 | 86 | 1017.6 |
| 20260903084034 | 82 | 153 | 2.0 | 10.0 | 0.00 | 0.00 | 0.00 | 86 | 1017.6 |
| 20260903083535 | 82 | 205 | 4.0 | 10.0 | 0.00 | 0.00 | 0.00 | 86 | 1017.6 |
| 20260903083052 | 82 | 144 | 4.0 | 10.0 | 0.00 | 0.00 | 0.00 | 86 | 1017.5 |
| 20260903082534 | 82 | 164 | 4.0 | 10.0 | 0.00 | 0.00 | 0.00 | 86 | 1017.6 |
| 20260903082035 | 82 | 169 | 4.0 | 10.0 | 0.00 | 0.00 | 0.00 | 86 | 1017.7 |
| 20260903081545 | 81 | 159 | 5.0 | 11.0 | 0.00 | 0.00 | 0.00 | 86 | 1017.6 |
| 20260903081038 | 81 | 134 | 3.0 | 11.0 | 0.00 | 0.00 | 0.00 | 86 | 1017.6 |
| 20260903080535 | 81 | 140 | 5.0 | 11.0 | 0.00 | 0.00 | 0.00 | 86 | 1017.6 |
| 20260903080046 | 81 | 0 | 5.0 | 12.0 | 0.00 | 0.00 | 0.00 | 86 | 1017.6 |
| 20260903075534 | 81 | 166 | 4.0 | 12.0 | 0.00 | 0.00 | 0.00 | 86 | 1017.6 |
| 20260903075038 | 81 | 161 | 4.0 | 11.0 | 0.00 | 0.00 | 0.00 | 86 | 1017.6 |
| 20260903074553 | 81 | 360 | 5.0 | 12.0 | 0.00 | 0.00 | 0.00 | 86 | 1017.4 |
| 20260903074034 | 81 | 167 | 3.0 | 12.0 | 0.00 | 0.00 | 0.00 | 85 | 1017.4 |
| 20260903073535 | 81 | 360 | 4.0 | 11.0 | 0.00 | 0.00 | 0.00 | 85 | 1017.4 |
| 20260903073053 | 81 | 360 | 5.0 | 11.0 | 0.00 | 0.00 | 0.00 | 85 | 1017.4 |
| 20260903072535 | 81 | 157 | 5.0 | 13.0 | 0.00 | 0.00 | 0.00 | 85 | 1017.5 |
| 20260903072034 | 81 | 180 | 5.0 | 13.0 | 0.00 | 0.00 | 0.00 | 85 | 1017.5 |
| 20260903071615 | 82 | 158 | 5.0 | 12.0 | 0.00 | 0.00 | 0.00 | 85 | 1017.5 |
| 20260903071034 | 82 | 205 | 4.0 | 12.0 | 0.00 | 0.00 | 0.00 | 85 | 1017.5 |
| 20260903070536 | 82 | 160 | 5.0 | 10.0 | 0.00 | 0.00 | 0.00 | 84 | 1017.6 |
| 20260903070058 | 82 | 179 | 5.0 | 12.0 | 0.00 | 0.00 | 0.00 | 84 | 1017.5 |
| 20260903065539 | 82 | 149 | 3.0 | 12.0 | 0.00 | 0.00 | 0.00 | 84 | 1017.7 |
| 20260903065034 | 82 | 136 | 3.0 | 8.0 | 0.00 | 0.00 | 0.00 | 84 | 1017.7 |
| 20260903064559 | 82 | 173 | 3.0 | 8.0 | 0.00 | 0.00 | 0.00 | 84 | 1017.7 |
| 20260903064035 | 82 | 160 | 3.0 | 11.0 | 0.00 | 0.00 | 0.00 | 84 | 1017.8 |
| 20260903063535 | 82 | 121 | 4.0 | 11.0 | 0.00 | 0.00 | 0.00 | 84 | 1017.8 |
| 20260903063102 | 82 | 105 | 4.0 | 11.0 | 0.00 | 0.00 | 0.00 | 84 | 1017.8 |
| 20260903062535 | 82 | 163 | 4.0 | 9.0 | 0.00 | 0.00 | 0.00 | 83 | 1017.8 |
| 20260903062034 | 82 | 164 | 4.0 | 9.0 | 0.00 | 0.00 | 0.00 | 83 | 1017.8 |
| 20260903061547 | 82 | 134 | 4.0 | 10.0 | 0.00 | 0.00 | 0.00 | 83 | 1017.9 |
| 20260903061035 | 82 | 144 | 3.0 | 10.0 | 0.00 | 0.00 | 0.00 | 83 | 1017.9 |
| 20260903060535 | 82 | 154 | 1.0 | 10.0 | 0.00 | 0.00 | 0.00 | 83 | 1017.8 |
| 20260903060046 | 82 | 148 | 3.0 | 9.0 | 0.00 | 0.00 | 0.00 | 83 | 1017.7 |
| 20260903055535 | 82 | 136 | 2.0 | 9.0 | 0.00 | 0.00 | 0.00 | 82 | 1017.7 |
| 20260903055034 | 82 | 360 | 4.0 | 10.0 | 0.00 | 0.00 | 0.00 | 82 | 1017.8 |
| 20260903054554 | 83 | 134 | 4.0 | 11.0 | 0.00 | 0.00 | 0.00 | 82 | 1017.9 |
| 20260903054038 | 83 | 149 | 6.0 | 11.0 | 0.00 | 0.00 | 0.00 | 82 | 1017.8 |
| 20260903053535 | 83 | 141 | 5.0 | 13.0 | 0.00 | 0.00 | 0.00 | 81 | 1017.7 |
| 20260903053053 | 83 | 161 | 5.0 | 13.0 | 0.00 | 0.00 | 0.00 | 81 | 1017.7 |
| 20260903052536 | 83 | 177 | 5.0 | 12.0 | 0.00 | 0.00 | 0.00 | 81 | 1017.7 |
| 20260903052036 | 83 | 360 | 4.0 | 18.0 | 0.00 | 0.00 | 0.00 | 80 | 1017.7 |
| 20260903051554 | 83 | 123 | 8.0 | 18.0 | 0.00 | 0.00 | 0.00 | 80 | 1017.6 |
| 20260903051036 | 83 | 168 | 7.0 | 13.0 | 0.00 | 0.00 | 0.00 | 79 | 1017.6 |
| 20260903050534 | 83 | 145 | 4.0 | 12.0 | 0.00 | 0.00 | 0.00 | 79 | 1017.5 |
| 20260903050107 | 84 | 154 | 7.0 | 12.0 | 0.00 | 0.00 | 0.00 | 78 | 1017.5 |
| 20260903045534 | 84 | 171 | 5.0 | 11.0 | 0.00 | 0.00 | 0.00 | 78 | 1017.6 |
| 20260903045035 | 84 | 146 | 5.0 | 19.0 | 0.00 | 0.00 | 0.00 | 77 | 1017.5 |
| 20260903044556 | 84 | 150 | 6.0 | 19.0 | 0.00 | 0.00 | 0.00 | 76 | 1017.6 |
| 20260903044035 | 84 | 150 | 8.0 | 18.0 | 0.00 | 0.00 | 0.00 | 75 | 1017.6 |
| 20260903043535 | 85 | 149 | 8.0 | 16.0 | 0.00 | 0.00 | 0.00 | 74 | 1017.5 |
| 20260903043054 | 85 | 360 | 3.0 | 16.0 | 0.00 | 0.00 | 0.00 | 74 | 1017.5 |
| 20260903042535 | 85 | 130 | 8.0 | 16.0 | 0.00 | 0.00 | 0.00 | 73 | 1017.5 |
| 20260903042035 | 85 | 144 | 8.0 | 16.0 | 0.00 | 0.00 | 0.00 | 72 | 1017.5 |
| 20260903041606 | 85 | 179 | 8.0 | 14.0 | 0.00 | 0.00 | 0.00 | 72 | 1017.5 |
| 20260903041034 | 86 | 112 | 6.0 | 12.0 | 0.00 | 0.00 | 0.00 | 72 | 1017.5 |
| 20260903040535 | 86 | 158 | 4.0 | 14.0 | 0.00 | 0.00 | 0.00 | 71 | 1017.4 |
| 20260903040059 | 86 | 200 | 7.0 | 14.0 | 0.00 | 0.00 | 0.00 | 71 | 1017.4 |
| 20260903035535 | 86 | 360 | 5.0 | 13.0 | 0.00 | 0.00 | 0.00 | 71 | 1017.4 |
| 20260903035036 | 86 | 360 | 3.0 | 10.0 | 0.00 | 0.00 | 0.00 | 70 | 1017.5 |
| 20260903034545 | 87 | 111 | 3.0 | 10.0 | 0.00 | 0.00 | 0.00 | 70 | 1017.3 |
| 20260903034035 | 87 | 159 | 4.0 | 9.0 | 0.00 | 0.00 | 0.00 | 70 | 1017.3 |
| 20260903033534 | 87 | 360 | 2.0 | 8.0 | 0.00 | 0.00 | 0.00 | 69 | 1017.2 |
| 20260903033044 | 87 | 134 | 3.0 | 10.0 | 0.00 | 0.00 | 0.00 | 68 | 1017.2 |
| 20260903032535 | 88 | 165 | 3.0 | 10.0 | 0.00 | 0.00 | 0.00 | 68 | 1017.1 |
| 20260903032034 | 88 | 99 | 5.0 | 10.0 | 0.00 | 0.00 | 0.00 | 67 | 1017.0 |
| 20260903031553 | 88 | 149 | 6.0 | 10.0 | 0.00 | 0.00 | 0.00 | 66 | 1016.8 |
| 20260903031035 | 89 | 99 | 3.0 | 17.0 | 0.00 | 0.00 | 0.00 | 66 | 1016.9 |
| 20260903030537 | 89 | 130 | 6.0 | 17.0 | 0.00 | 0.00 | 0.00 | 65 | 1016.7 |
| 20260903030051 | 89 | 164 | 4.0 | 10.0 | 0.00 | 0.00 | 0.00 | 65 | 1016.7 |
| 20260903025535 | 90 | 111 | 3.0 | 10.0 | 0.00 | 0.00 | 0.00 | 64 | 1016.7 |
| 20260903025035 | 90 | 360 | 2.0 | 11.0 | 0.00 | 0.00 | 0.00 | 63 | 1016.7 |
| 20260903024547 | 90 | 360 | 4.0 | 13.0 | 0.00 | 0.00 | 0.00 | 63 | 1016.5 |
| 20260903024034 | 90 | 360 | 3.0 | 13.0 | 0.00 | 0.00 | 0.00 | 62 | 1016.5 |
| 20260903023534 | 91 | 131 | 4.0 | 12.0 | 0.00 | 0.00 | 0.00 | 62 | 1016.3 |
| 20260903023055 | 91 | 360 | 6.0 | 12.0 | 0.00 | 0.00 | 0.00 | 62 | 1016.1 |
| 20260903022534 | 91 | 143 | 6.0 | 12.0 | 0.00 | 0.00 | 0.00 | 61 | 1016.1 |
| 20260903022034 | 91 | 152 | 6.0 | 12.0 | 0.00 | 0.00 | 0.00 | 61 | 1016.0 |
| 20260903021556 | 92 | 141 | 3.0 | 9.0 | 0.00 | 0.00 | 0.00 | 60 | 1015.9 |
| 20260903021036 | 92 | 168 | 3.0 | 9.0 | 0.00 | 0.00 | 0.00 | 59 | 1015.9 |
| 20260903020537 | 92 | 140 | 3.0 | 9.0 | 0.00 | 0.00 | 0.00 | 58 | 1015.7 |
| 20260903020053 | 93 | 138 | 1.0 | 11.0 | 0.00 | 0.00 | 0.00 | 57 | 1015.7 |
| 20260903015536 | 93 | 167 | 3.0 | 12.0 | 0.00 | 0.00 | 0.00 | 57 | 1015.6 |
| 20260903015038 | 93 | 360 | 5.0 | 12.0 | 0.00 | 0.00 | 0.00 | 55 | 1015.4 |
| 20260903014559 | 93 | 360 | 5.0 | 12.0 | 0.00 | 0.00 | 0.00 | 53 | 1015.3 |
| 20260903014035 | 94 | 360 | 3.0 | 12.0 | 0.00 | 0.00 | 0.00 | 51 | 1015.3 |
| 20260903013535 | 94 | 360 | 4.0 | 12.0 | 0.00 | 0.00 | 0.00 | 47 | 1015.2 |
| 20260903013053 | 94 | 0 | 0.0 | 0.0 | 0.00 | 0.00 | 0.00 | 45 | 1015.1 |
| 20260903012536 | 95 | 0 | 0.0 | 0.0 | 0.00 | 0.00 | 0.00 | 44 | 1015.0 |
| 20260903012034 | 95 | 0 | 0.0 | 0.0 | 0.00 | 0.00 | 0.00 | 44 | 1015.0 |
| 20260903011553 | 96 | 0 | 0.0 | 0.0 | 0.00 | 0.00 | 0.00 | 43 | 1015.0 |
| 20260903011036 | 96 | 0 | 0.0 | 0.0 | 0.00 | 0.00 | 0.00 | 43 | 1015.0 |
| 20260903010536 | 97 | 0 | 0.0 | 0.0 | 0.00 | 0.00 | 0.00 | 42 | 1014.9 |
| 20260903010052 | 97 | 0 | 0.0 | 0.0 | 0.00 | 0.00 | 0.00 | 41 | 1015.0 |
| 20260903005539 | 98 | 0 | 0.0 | 2.0 | 0.00 | 0.00 | 0.00 | 41 | 1015.0 |
| 20260903005038 | 98 | 0 | 0.0 | 2.0 | 0.00 | 0.00 | 0.00 | 40 | 1015.0 |
| 20260903004555 | 99 | 0 | 0.0 | 3.0 | 0.00 | 0.00 | 0.00 | 40 | 1015.0 |
| 20260903004035 | 99 | 0 | 0.0 | 4.0 | 0.00 | 0.00 | 0.00 | 39 | 1015.0 |
| 20260903003538 | 100 | 0 | 1.0 | 6.0 | 0.00 | 0.00 | 0.00 | 39 | 1014.9 |
| 20260903003059 | 100 | 158 | 1.0 | 7.0 | 0.00 | 0.00 | 0.00 | 38 | 1015.0 |
| 20260903002536 | 101 | 360 | 1.0 | 7.0 | 0.00 | 0.00 | 0.00 | 38 | 1014.9 |
| 20260903002035 | 101 | 187 | 2.0 | 6.0 | 0.00 | 0.00 | 0.00 | 37 | 1014.9 |
| 20260903001552 | 102 | 0 | 1.0 | 5.0 | 0.00 | 0.00 | 0.00 | 36 | 1015.0 |
| 20260903001039 | 102 | 0 | 1.0 | 7.0 | 0.00 | 0.00 | 0.00 | 35 | 1014.9 |
| 20260903000537 | 102 | 144 | 0.0 | 7.0 | 0.00 | 0.00 | 0.00 | 35 | 1015.0 |
| 20260902235535 | 101 | 161 | 0.0 | 3.0 | 0.00 | 0.00 | 0.00 | 36 | 1015.1 |
| 20260902235034 | 101 | 0 | 0.0 | 4.0 | 0.00 | 0.00 | 0.00 | 36 | 1015.0 |
| 20260902234605 | 101 | 0 | 0.0 | 7.0 | 0.00 | 0.00 | 0.00 | 36 | 1015.1 |
| 20260902234038 | 101 | 163 | 3.0 | 7.0 | 0.00 | 0.00 | 0.00 | 36 | 1015.1 |
| 20260902233535 | 102 | 183 | 2.0 | 9.0 | 0.00 | 0.00 | 0.00 | 36 | 1015.1 |
| 20260902233045 | 102 | 136 | 2.0 | 9.0 | 0.00 | 0.00 | 0.00 | 36 | 1015.1 |
| 20260902232535 | 102 | 360 | 0.0 | 7.0 | 0.00 | 0.00 | 0.00 | 36 | 1015.1 |
| 20260902232034 | 102 | 170 | 2.0 | 8.0 | 0.00 | 0.00 | 0.00 | 36 | 1015.1 |
| 20260902231554 | 102 | 166 | 2.0 | 8.0 | 0.00 | 0.00 | 0.00 | 36 | 1015.1 |
| 20260902231034 | 103 | 82 | 1.0 | 9.0 | 0.00 | 0.00 | 0.00 | 36 | 1015.1 |
| 20260902230534 | 103 | 66 | 0.0 | 9.0 | 0.00 | 0.00 | 0.00 | 36 | 1015.1 |
| 20260902225535 | 103 | 0 | 0.0 | 7.0 | 0.00 | 0.00 | 0.00 | 37 | 1015.1 |
| 20260902225034 | 103 | 360 | 3.0 | 8.0 | 0.00 | 0.00 | 0.00 | 36 | 1015.1 |
| 20260902224605 | 103 | 360 | 3.0 | 8.0 | 0.00 | 0.00 | 0.00 | 35 | 1015.1 |
| 20260902224035 | 103 | 163 | 2.0 | 8.0 | 0.00 | 0.00 | 0.00 | 35 | 1015.1 |
| 20260902223538 | 104 | 132 | 1.0 | 6.0 | 0.00 | 0.00 | 0.00 | 35 | 1015.1 |
| 20260902223044 | 104 | 94 | 1.0 | 5.0 | 0.00 | 0.00 | 0.00 | 34 | 1015.2 |
| 20260902222535 | 104 | 0 | 1.0 | 7.0 | 0.00 | 0.00 | 0.00 | 34 | 1015.3 |
| 20260902222036 | 103 | 101 | 1.0 | 7.0 | 0.00 | 0.00 | 0.00 | 34 | 1015.3 |
| 20260902221604 | 103 | 152 | 3.0 | 7.0 | 0.00 | 0.00 | 0.00 | 35 | 1015.3 |
| 20260902221034 | 102 | 94 | 2.0 | 7.0 | 0.00 | 0.00 | 0.00 | 37 | 1015.2 |
| 20260902220534 | 102 | 0 | 1.0 | 10.0 | 0.00 | 0.00 | 0.00 | 35 | 1015.3 |
| 20260902220058 | 103 | 229 | 2.0 | 12.0 | 0.00 | 0.00 | 0.00 | 34 | 1015.4 |
| 20260902215534 | 103 | 191 | 5.0 | 12.0 | 0.00 | 0.00 | 0.00 | 34 | 1015.3 |
| 20260902215034 | 103 | 158 | 3.0 | 10.0 | 0.00 | 0.00 | 0.00 | 35 | 1015.4 |
| 20260902214616 | 103 | 144 | 1.0 | 12.0 | 0.00 | 0.00 | 0.00 | 36 | 1015.4 |
| 20260902214037 | 103 | 159 | 5.0 | 12.0 | 0.00 | 0.00 | 0.00 | 36 | 1015.6 |
| 20260902213536 | 102 | 157 | 1.0 | 9.0 | 0.00 | 0.00 | 0.00 | 37 | 1015.6 |
| 20260902213052 | 102 | 209 | 2.0 | 7.0 | 0.00 | 0.00 | 0.00 | 37 | 1015.7 |
| 20260902212535 | 101 | 0 | 2.0 | 6.0 | 0.00 | 0.00 | 0.00 | 37 | 1015.7 |
| 20260902212035 | 101 | 0 | 0.0 | 3.0 | 0.00 | 0.00 | 0.00 | 39 | 1015.7 |
| 20260902211545 | 101 | 0 | 0.0 | 3.0 | 0.00 | 0.00 | 0.00 | 38 | 1015.7 |
| 20260902211035 | 101 | 0 | 0.0 | 5.0 | 0.00 | 0.00 | 0.00 | 39 | 1015.8 |
| 20260902210537 | 101 | 0 | 0.0 | 8.0 | 0.00 | 0.00 | 0.00 | 38 | 1015.9 |
| 20260902210055 | 102 | 192 | 1.0 | 8.0 | 0.00 | 0.00 | 0.00 | 38 | 1016.0 |
| 20260902205534 | 103 | 197 | 2.0 | 8.0 | 0.00 | 0.00 | 0.00 | 37 | 1016.0 |
| 20260902205035 | 104 | 0 | 0.0 | 7.0 | 0.00 | 0.00 | 0.00 | 36 | 1016.1 |
| 20260902204554 | 105 | 347 | 0.0 | 6.0 | 0.00 | 0.00 | 0.00 | 35 | 1016.1 |
| 20260902204035 | 105 | 148 | 2.0 | 8.0 | 0.00 | 0.00 | 0.00 | 37 | 1016.2 |
| 20260902203534 | 104 | 198 | 0.0 | 8.0 | 0.00 | 0.00 | 0.00 | 37 | 1016.3 |
| 20260902203052 | 105 | 0 | 2.0 | 8.0 | 0.00 | 0.00 | 0.00 | 37 | 1016.4 |
| 20260902202535 | 104 | 71 | 1.0 | 4.0 | 0.00 | 0.00 | 0.00 | 37 | 1016.4 |
| 20260902202035 | 105 | 157 | 1.0 | 8.0 | 0.00 | 0.00 | 0.00 | 37 | 1016.5 |
| 20260902201602 | 104 | 0 | 2.0 | 8.0 | 0.00 | 0.00 | 0.00 | 38 | 1016.6 |
| 20260902201038 | 103 | 360 | 2.0 | 8.0 | 0.00 | 0.00 | 0.00 | 39 | 1016.6 |
| 20260902200536 | 103 | 152 | 1.0 | 7.0 | 0.00 | 0.00 | 0.00 | 39 | 1016.9 |
| 20260902200055 | 102 | 258 | 2.0 | 7.0 | 0.00 | 0.00 | 0.00 | 39 | 1016.8 |
| 20260902195534 | 101 | 263 | 1.0 | 8.0 | 0.00 | 0.00 | 0.00 | 40 | 1017.1 |
| 20260902195035 | 102 | 0 | 2.0 | 8.0 | 0.00 | 0.00 | 0.00 | 38 | 1017.1 |
| 20260902194554 | 103 | 0 | 3.0 | 8.0 | 0.00 | 0.00 | 0.00 | 38 | 1017.3 |
| 20260902194034 | 104 | 66 | 0.0 | 6.0 | 0.00 | 0.00 | 0.00 | 37 | 1017.3 |
| 20260902193539 | 104 | 0 | 0.0 | 8.0 | 0.00 | 0.00 | 0.00 | 35 | 1017.5 |
| 20260902193050 | 104 | 160 | 2.0 | 9.0 | 0.00 | 0.00 | 0.00 | 37 | 1017.4 |
| 20260902192535 | 103 | 160 | 4.0 | 9.0 | 0.00 | 0.00 | 0.00 | 39 | 1017.6 |
| 20260902192036 | 103 | 165 | 2.0 | 7.0 | 0.00 | 0.00 | 0.00 | 38 | 1017.6 |
| 20260902191548 | 103 | 0 | 1.0 | 8.0 | 0.00 | 0.00 | 0.00 | 38 | 1017.7 |
| 20260902191039 | 103 | 207 | 1.0 | 9.0 | 0.00 | 0.00 | 0.00 | 37 | 1017.8 |
| 20260902190535 | 104 | 279 | 3.0 | 9.0 | 0.00 | 0.00 | 0.00 | 38 | 1017.8 |
| 20260902190047 | 103 | 171 | 2.0 | 7.0 | 0.00 | 0.00 | 0.00 | 40 | 1017.9 |
| 20260902185535 | 103 | 0 | 0.0 | 10.0 | 0.00 | 0.00 | 0.00 | 40 | 1018.0 |
| 20260902185035 | 103 | 195 | 3.0 | 10.0 | 0.00 | 0.00 | 0.00 | 41 | 1018.0 |
| 20260902184555 | 102 | 0 | 2.0 | 10.0 | 0.00 | 0.00 | 0.00 | 43 | 1018.1 |
| 20260902184034 | 102 | 198 | 1.0 | 11.0 | 0.00 | 0.00 | 0.00 | 42 | 1018.1 |
| 20260902183536 | 102 | 171 | 5.0 | 11.0 | 0.00 | 0.00 | 0.00 | 42 | 1018.3 |
| 20260902183051 | 102 | 0 | 2.0 | 8.0 | 0.00 | 0.00 | 0.00 | 42 | 1018.4 |
| 20260902182536 | 101 | 148 | 3.0 | 8.0 | 0.00 | 0.00 | 0.00 | 44 | 1018.5 |
| 20260902182035 | 100 | 161 | 1.0 | 5.0 | 0.00 | 0.00 | 0.00 | 43 | 1018.6 |
| 20260902181552 | 100 | 163 | 0.0 | 10.0 | 0.00 | 0.00 | 0.00 | 44 | 1018.7 |
| 20260902181036 | 100 | 0 | 0.0 | 12.0 | 0.00 | 0.00 | 0.00 | 44 | 1018.9 |
| 20260902180536 | 100 | 360 | 3.0 | 12.0 | 0.00 | 0.00 | 0.00 | 46 | 1018.9 |
| 20260902180047 | 99 | 200 | 3.0 | 10.0 | 0.00 | 0.00 | 0.00 | 47 | 1019.1 |
| 20260902175534 | 99 | 165 | 0.0 | 4.0 | 0.00 | 0.00 | 0.00 | 48 | 1019.1 |
| 20260902175034 | 100 | 0 | 1.0 | 5.0 | 0.00 | 0.00 | 0.00 | 47 | 1019.2 |
| 20260902174555 | 100 | 0 | 0.0 | 8.0 | 0.00 | 0.00 | 0.00 | 47 | 1019.3 |
| 20260902174037 | 99 | 0 | 3.0 | 11.0 | 0.00 | 0.00 | 0.00 | 49 | 1019.4 |
| 20260902173535 | 99 | 164 | 4.0 | 11.0 | 0.00 | 0.00 | 0.00 | 47 | 1019.5 |
| 20260902173054 | 98 | 252 | 0.0 | 7.0 | 0.00 | 0.00 | 0.00 | 48 | 1019.5 |
| 20260902172534 | 98 | 360 | 2.0 | 7.0 | 0.00 | 0.00 | 0.00 | 51 | 1019.5 |
| 20260902172037 | 98 | 0 | 0.0 | 9.0 | 0.00 | 0.00 | 0.00 | 48 | 1019.5 |
| 20260902171556 | 97 | 80 | 3.0 | 10.0 | 0.00 | 0.00 | 0.00 | 51 | 1019.6 |
| 20260902171035 | 96 | 154 | 4.0 | 10.0 | 0.00 | 0.00 | 0.00 | 53 | 1019.6 |
| 20260902170536 | 96 | 231 | 1.0 | 8.0 | 0.00 | 0.00 | 0.00 | 54 | 1019.7 |
| 20260902170052 | 97 | 208 | 1.0 | 7.0 | 0.00 | 0.00 | 0.00 | 52 | 1019.9 |
| 20260902165534 | 96 | 0 | 1.0 | 9.0 | 0.00 | 0.00 | 0.00 | 56 | 1019.7 |
| 20260902165035 | 95 | 161 | 4.0 | 10.0 | 0.00 | 0.00 | 0.00 | 58 | 1019.9 |
| 20260902164549 | 94 | 146 | 5.0 | 12.0 | 0.00 | 0.00 | 0.00 | 58 | 1019.9 |
| 20260902164035 | 94 | 151 | 4.0 | 12.0 | 0.00 | 0.00 | 0.00 | 59 | 1019.9 |
| 20260902163535 | 94 | 210 | 1.0 | 10.0 | 0.00 | 0.00 | 0.00 | 59 | 1020.0 |
| 20260902163055 | 94 | 165 | 3.0 | 9.0 | 0.00 | 0.00 | 0.00 | 59 | 1020.0 |
| 20260902162536 | 94 | 171 | 0.0 | 7.0 | 0.00 | 0.00 | 0.00 | 60 | 1020.0 |
| 20260902162036 | 93 | 194 | 2.0 | 9.0 | 0.00 | 0.00 | 0.00 | 61 | 1020.1 |
| 20260902161555 | 93 | 189 | 3.0 | 11.0 | 0.00 | 0.00 | 0.00 | 60 | 1020.0 |
| 20260902161034 | 93 | 164 | 5.0 | 11.0 | 0.00 | 0.00 | 0.00 | 61 | 1020.1 |
| 20260902160535 | 92 | 171 | 4.0 | 9.0 | 0.00 | 0.00 | 0.00 | 64 | 1020.0 |
| 20260902160051 | 92 | 203 | 1.0 | 8.0 | 0.00 | 0.00 | 0.00 | 64 | 1020.0 |
| 20260902155536 | 92 | 217 | 0.0 | 10.0 | 0.00 | 0.00 | 0.00 | 65 | 1020.0 |
| 20260902155036 | 91 | 0 | 3.0 | 10.0 | 0.00 | 0.00 | 0.00 | 65 | 1020.0 |
| 20260902154547 | 90 | 146 | 2.0 | 7.0 | 0.00 | 0.00 | 0.00 | 67 | 1020.0 |
| 20260902154035 | 90 | 194 | 1.0 | 8.0 | 0.00 | 0.00 | 0.00 | 69 | 1020.0 |
| 20260902153536 | 89 | 161 | 2.0 | 8.0 | 0.00 | 0.00 | 0.00 | 71 | 1020.0 |
| 20260902153052 | 89 | 0 | 2.0 | 9.0 | 0.00 | 0.00 | 0.00 | 70 | 1020.0 |
| 20260902152535 | 88 | 196 | 2.0 | 10.0 | 0.00 | 0.00 | 0.00 | 71 | 1020.0 |
| 20260902152035 | 88 | 0 | 4.0 | 11.0 | 0.00 | 0.00 | 0.00 | 72 | 1019.9 |
| 20260902151544 | 87 | 205 | 4.0 | 11.0 | 0.00 | 0.00 | 0.00 | 74 | 1020.2 |
| 20260902151037 | 86 | 360 | 2.0 | 7.0 | 0.00 | 0.00 | 0.00 | 76 | 1020.1 |
| 20260902150535 | 86 | 0 | 1.0 | 8.0 | 0.00 | 0.00 | 0.00 | 76 | 1020.2 |
| 20260902150055 | 85 | 93 | 3.0 | 10.0 | 0.00 | 0.00 | 0.00 | 76 | 1020.2 |
| 20260902145535 | 85 | 198 | 2.0 | 10.0 | 0.00 | 0.00 | 0.00 | 77 | 1020.3 |
| 20260902145034 | 85 | 188 | 3.0 | 10.0 | 0.00 | 0.00 | 0.00 | 77 | 1020.1 |
| 20260902144558 | 85 | 236 | 1.0 | 9.0 | 0.00 | 0.00 | 0.00 | 79 | 1020.2 |
| 20260902144034 | 85 | 202 | 2.0 | 8.0 | 0.00 | 0.00 | 0.00 | 79 | 1020.2 |
| 20260902143535 | 84 | 156 | 1.0 | 10.0 | 0.00 | 0.00 | 0.00 | 81 | 1020.3 |
| 20260902143058 | 84 | 360 | 5.0 | 10.0 | 0.00 | 0.00 | 0.00 | 81 | 1020.2 |
| 20260902142536 | 84 | 0 | 1.0 | 7.0 | 0.00 | 0.00 | 0.00 | 81 | 1020.2 |
| 20260902142038 | 83 | 161 | 1.0 | 8.0 | 0.00 | 0.00 | 0.00 | 83 | 1020.1 |
| 20260902141542 | 83 | 194 | 4.0 | 8.0 | 0.00 | 0.00 | 0.00 | 83 | 1020.1 |
| 20260902141036 | 82 | 187 | 0.0 | 5.0 | 0.00 | 0.00 | 0.00 | 86 | 1020.2 |
| 20260902140535 | 82 | 0 | 1.0 | 5.0 | 0.00 | 0.00 | 0.00 | 87 | 1020.2 |
| 20260902140057 | 81 | 171 | 1.0 | 5.0 | 0.00 | 0.00 | 0.00 | 88 | 1020.2 |
| 20260902135537 | 80 | 150 | 0.0 | 6.0 | 0.00 | 0.00 | 0.00 | 88 | 1020.3 |
| 20260902135034 | 80 | 0 | 1.0 | 6.0 | 0.00 | 0.00 | 0.00 | 89 | 1020.3 |
| 20260902134551 | 80 | 0 | 1.0 | 4.0 | 0.00 | 0.00 | 0.00 | 91 | 1020.3 |
| 20260902134035 | 79 | 0 | 0.0 | 2.0 | 0.00 | 0.00 | 0.00 | 92 | 1020.2 |
| 20260902133535 | 79 | 0 | 0.0 | 1.0 | 0.00 | 0.00 | 0.00 | 92 | 1020.3 |
| 20260902133101 | 78 | 0 | 0.0 | 1.0 | 0.00 | 0.00 | 0.00 | 93 | 1020.2 |
| 20260902132534 | 78 | 0 | 0.0 | 0.0 | 0.00 | 0.00 | 0.00 | 93 | 1020.2 |
| 20260902132036 | 78 | 0 | 0.0 | 0.0 | 0.00 | 0.00 | 0.00 | 93 | 1020.1 |
| 20260902131555 | 77 | 0 | 0.0 | 0.0 | 0.00 | 0.00 | 0.00 | 93 | 1020.2 |
| 20260902131038 | 77 | 0 | 0.0 | 0.0 | 0.00 | 0.00 | 0.00 | 93 | 1020.0 |
| 20260902130536 | 77 | 0 | 0.0 | 0.0 | 0.00 | 0.00 | 0.00 | 93 | 1020.0 |
| 20260902130057 | 77 | 0 | 0.0 | 0.0 | 0.00 | 0.00 | 0.00 | 93 | 1019.8 |
| 20260902125535 | 77 | 0 | 0.0 | 0.0 | 0.00 | 0.00 | 0.00 | 92 | 1019.7 |
| 20260902125035 | 77 | 0 | 0.0 | 0.0 | 0.00 | 0.00 | 0.00 | 92 | 1019.6 |
| 20260902124552 | 77 | 0 | 0.0 | 0.0 | 0.00 | 0.00 | 0.00 | 92 | 1019.5 |
| 20260902124035 | 77 | 0 | 0.0 | 0.0 | 0.00 | 0.00 | 0.00 | 92 | 1019.4 |
| 20260902123535 | 77 | 0 | 0.0 | 0.0 | 0.00 | 0.00 | 0.00 | 92 | 1019.4 |
| 20260902123047 | 77 | 0 | 0.0 | 0.0 | 0.00 | 0.00 | 0.00 | 92 | 1019.3 |
| 20260902122535 | 77 | 0 | 0.0 | 0.0 | 0.00 | 0.00 | 0.00 | 92 | 1019.3 |
| 20260902122034 | 77 | 0 | 0.0 | 0.0 | 0.00 | 0.00 | 0.00 | 91 | 1019.4 |
| 20260902121556 | 77 | 0 | 0.0 | 0.0 | 0.00 | 0.00 | 0.00 | 91 | 1019.4 |
| 20260902121035 | 77 | 0 | 0.0 | 0.0 | 0.00 | 0.00 | 0.00 | 91 | 1019.4 |
| 20260902120535 | 77 | 0 | 0.0 | 0.0 | 0.00 | 0.00 | 0.00 | 91 | 1019.3 |
| 20260902120051 | 77 | 0 | 0.0 | 0.0 | 0.00 | 0.00 | 0.00 | 91 | 1019.2 |
| 20260902115534 | 77 | 0 | 0.0 | 0.0 | 0.00 | 0.00 | 0.00 | 91 | 1019.3 |
| 20260902115034 | 77 | 0 | 0.0 | 0.0 | 0.00 | 0.00 | 0.00 | 91 | 1019.3 |
| 20260902114553 | 77 | 0 | 0.0 | 0.0 | 0.00 | 0.00 | 0.00 | 91 | 1019.3 |
| 20260902114035 | 77 | 0 | 0.0 | 0.0 | 0.00 | 0.00 | 0.00 | 90 | 1019.3 |
| 20260902113534 | 77 | 0 | 0.0 | 0.0 | 0.00 | 0.00 | 0.00 | 90 | 1019.2 |